Wind_Speed
18 19 21 22 21 21 20 20 19 17 16 15 14 12 12 13 14 13 13 14 14 14 15 16 16 17 19 21 20 20 20 21 22 22 22 22 21 21 20 18 18 18 18 18 17 17 17 17 17 17 16 15 15 16 16 17 19 20 20 19 19 19 19 18 18 19 18 18 17 17 18 18 17 17 16 16 16 16 16 17 17 17 17 17 17
20 19 20 21 21 20 20 19 18 17 15 14 13 12 11 12 13 13 13 13 13 13 15 16 16 17 19 21 21 20 19 19 20 20 20 19 19 18 18 17 17 17 18 18 18 17 17 17 17 17 16 16 17 17 17 18 19 20 19 19 19 19 18 18 18 18 18 18 17 17 17 17 18 17 16 16 16 17 18 18 17 17 17 17 17
21 20 20 20 20 19 18 18 17 16 14 13 12 12 11 11 13 13 13 13 13 13 14 15 16 17 19 20 21 21 20 19 18 18 17 17 17 16 16 16 17 17 17 18 17 17 16 16 16 16 16 16 17 18 19 19 18 19 18 18 18 18 17 17 18 18 18 18 18 18 17 17 17 16 16 16 17 18 18 17 17 17 17 16 16
20 20 20 21 19 18 17 16 16 14 13 12 12 12 11 11 12 13 13 13 13 13 13 15 15 16 18 20 21 21 20 18 16 15 15 14 15 14 15 15 16 16 16 16 16 17 16 16 16 16 15 16 18 18 18 18 17 17 17 17 18 18 17 16 17 17 17 18 19 19 19 18 17 16 15 16 17 18 17 16 16 17 16 14 14
19 19 20 22 20 19 17 16 15 13 11 11 12 12 11 11 12 13 13 13 13 13 13 14 15 16 17 19 20 20 19 17 16 14 13 13 13 13 14 15 16 16 15 15 16 17 16 15 16 16 15 16 18 19 18 17 16 17 18 18 19 19 18 18 17 16 15 17 18 19 19 19 18 16 15 16 16 17 17 16 16 16 15 14 14
19 19 20 20 19 18 17 16 15 13 11 10 11 11 11 11 12 12 12 13 13 13 13 14 14 15 16 17 19 19 17 15 14 13 12 12 12 12 13 15 16 15 14 14 16 17 16 15 15 15 15 16 18 19 18 17 17 18 18 19 20 19 19 19 18 16 15 14 15 17 19 19 18 16 16 16 17 17 17 16 16 17 15 15 15
17 19 19 19 17 16 15 16 15 14 12 10 11 11 11 10 11 12 12 13 13 13 12 12 13 14 15 16 18 18 16 14 13 13 13 12 11 11 12 14 14 15 14 14 14 15 16 15 15 15 15 16 18 19 18 16 17 17 17 18 18 18 18 16 16 16 14 12 13 15 18 18 18 17 16 16 16 16 16 17 17 16 16 15 15
15 16 18 19 17 15 14 14 14 13 12 10 10 10 10 10 11 12 12 13 13 12 11 11 12 12 14 15 16 17 16 14 13 13 12 12 11 12 13 13 13 14 13 13 13 13 15 15 14 15 14 16 17 18 17 16 16 15 15 16 16 16 17 14 12 12 10 10 11 14 17 18 18 17 16 16 16 16 16 17 17 16 15 15 15
15 14 16 19 18 16 15 14 14 14 14 14 11 9 8 8 9 10 11 12 12 12 10 10 11 11 13 14 14 16 15 14 13 12 12 12 11 12 13 13 12 13 13 13 12 12 14 14 14 14 14 15 16 17 17 16 14 13 13 13 14 13 14 11 7 7 5 7 9 11 15 18 18 17 16 15 16 15 16 17 16 16 15 15 15
15 14 16 19 19 18 18 17 17 17 17 17 16 12 8 7 7 8 9 11 11 11 10 10 11 11 12 13 14 15 15 13 12 11 11 12 12 11 12 12 12 12 13 12 12 13 14 14 13 14 13 14 16 16 17 16 14 12 11 10 11 11 10 8 6 5 3 4 6 9 14 17 17 17 15 15 15 15 16 17 16 16 15 15 14
16 15 16 17 18 19 19 19 18 17 16 17 18 16 13 10 7 6 6 8 9 9 9 10 11 11 12 13 14 15 14 13 12 11 11 11 11 11 11 11 11 12 12 12 13 14 15 14 13 13 13 14 15 15 15 15 14 11 10 9 9 8 8 6 3 4 6 6 6 9 13 16 17 16 15 15 15 15 15 16 15 16 16 15 14
17 17 17 18 17 17 17 17 17 17 18 19 19 20 18 15 12 8 5 5 6 6 8 9 9 11 12 12 13 14 13 12 11 11 11 11 11 11 11 11 11 12 12 12 13 14 15 14 13 12 12 13 13 13 13 14 13 11 9 8 8 7 5 4 3 4 10 11 9 10 13 15 15 15 15 15 14 14 15 15 15 16 15 15 14
18 17 16 17 16 16 16 15 17 19 20 20 19 20 20 17 16 12 9 7 5 5 6 7 8 10 12 12 13 12 12 12 11 11 11 11 11 11 11 11 12 13 13 13 13 13 13 13 13 12 12 12 12 12 12 12 12 10 9 8 7 6 4 6 5 6 11 12 11 11 12 13 13 14 14 14 14 14 14 15 15 15 15 15 14
17 17 15 16 17 17 17 16 17 19 20 22 22 22 21 19 16 14 13 11 8 6 5 6 6 8 10 11 12 12 12 12 11 11 11 10 10 10 11 12 14 14 13 13 12 11 12 13 12 11 11 10 10 11 11 12 11 9 8 8 7 6 6 7 6 8 11 12 11 11 11 10 11 14 15 14 14 14 14 14 14 15 15 15 15
17 18 17 17 18 18 18 18 19 20 20 22 24 24 24 22 19 15 13 11 10 8 6 7 7 8 9 10 10 11 11 11 10 10 10 10 10 10 12 14 14 14 14 13 12 11 12 13 11 10 10 9 9 9 10 12 12 10 9 8 7 6 7 8 7 10 11 11 11 10 9 8 9 12 15 15 14 14 13 14 14 14 15 14 15
19 19 20 19 18 19 19 19 20 22 23 23 24 24 23 24 22 18 15 11 10 10 8 8 8 8 9 10 9 10 11 10 10 10 10 10 10 10 12 13 12 13 13 12 11 10 12 12 9 8 9 9 9 9 8 10 12 12 10 9 7 6 7 9 7 11 12 11 11 10 8 6 7 9 13 14 14 14 13 13 14 14 14 14 14
20 20 20 19 19 20 21 19 20 22 24 24 25 24 24 24 23 20 17 13 12 11 9 9 9 9 9 10 9 10 11 10 10 10 10 10 9 11 12 11 11 12 11 11 10 10 11 10 7 7 7 7 7 7 7 9 12 14 12 10 7 5 6 9 8 10 13 11 11 11 8 6 6 7 11 13 13 13 13 13 13 13 13 13 13
17 17 18 18 18 20 21 20 21 22 22 23 23 23 24 24 24 22 18 15 13 11 10 10 10 9 9 9 9 10 11 10 10 10 10 9 9 10 12 11 10 11 10 9 9 9 9 8 7 6 6 5 5 6 6 8 12 14 12 10 8 4 4 9 9 7 10 12 10 11 8 5 5 7 10 12 13 12 13 14 13 13 12 13 13
13 13 13 13 14 18 20 20 20 21 20 20 20 20 21 22 23 21 18 16 14 12 10 10 10 9 8 9 9 10 11 10 10 10 9 9 8 9 12 11 9 9 9 8 8 8 8 7 7 6 5 4 3 5 5 7 11 13 12 10 8 5 3 5 7 5 5 12 11 10 8 5 4 6 9 11 13 13 13 13 14 13 12 12 13
11 10 11 11 12 15 17 17 18 18 18 18 18 17 18 19 19 18 17 16 14 12 11 11 10 9 8 9 9 10 11 10 10 9 8 8 8 8 10 11 8 7 7 7 7 7 7 6 7 6 5 4 3 4 5 6 9 12 12 11 9 7 3 3 4 5 1 9 12 10 8 5 4 5 7 10 13 14 14 14 14 14 12 11 12
12 12 13 13 15 17 17 18 18 17 17 16 16 16 16 16 16 16 16 15 13 11 11 11 10 9 9 10 10 11 11 10 9 8 8 7 7 7 9 11 9 7 6 6 7 6 6 6 7 6 5 4 3 3 5 6 7 10 12 11 9 7 4 2 3 6 3 7 12 11 9 6 4 4 7 9 12 14 14 14 14 13 12 12 12
13 13 14 14 15 17 18 18 19 18 17 15 15 15 14 14 14 15 16 15 13 11 11 11 10 9 10 11 11 12 11 10 8 8 8 7 7 7 8 10 10 8 7 6 6 6 6 6 7 6 5 4 3 3 4 5 6 8 11 11 10 8 4 1 3 6 4 7 12 11 10 7 5 5 7 9 12 13 14 14 14 12 12 12 12
10 11 11 11 12 13 15 16 17 17 15 15 14 14 15 14 13 14 16 16 14 12 12 11 10 11 11 11 12 11 11 10 9 8 9 9 9 8 8 10 10 9 8 7 6 7 7 7 7 7 6 5 5 4 3 4 5 7 10 11 10 8 5 2 2 5 4 6 12 12 11 8 5 5 6 9 11 13 14 14 14 12 12 13 13
9 9 9 9 9 10 12 13 13 14 13 14 15 14 14 13 11 11 13 15 13 12 11 11 11 12 13 12 11 11 10 9 9 9 9 10 11 10 9 10 10 10 10 10 9 8 8 8 8 8 8 7 6 5 5 5 5 6 9 10 10 8 6 5 3 3 3 4 12 12 11 9 6 5 6 8 10 12 14 15 14 13 13 14 13
8 8 9 8 7 8 10 11 11 11 12 14 14 13 13 12 11 10 10 12 11 10 10 11 12 12 13 13 12 11 10 10 10 9 9 10 11 11 10 10 10 10 11 11 11 10 10 10 10 10 9 8 8 7 7 6 6 7 8 9 9 9 8 7 6 4 3 3 11 12 11 10 7 6 6 8 10 12 14 15 15 14 14 14 14
8 8 9 8 7 7 9 11 11 10 10 12 13 13 13 12 12 12 12 11 11 11 12 12 13 12 11 11 12 11 11 11 10 10 11 12 12 12 12 11 11 11 11 11 12 11 11 11 11 10 9 9 9 9 9 8 8 8 8 8 8 9 9 8 8 7 5 4 9 13 12 11 9 7 7 8 10 11 13 15 15 15 14 15 15
8 8 9 8 6 6 8 10 10 10 9 9 11 12 11 9 8 8 9 10 11 12 13 13 13 13 11 10 11 11 10 11 11 11 11 12 13 14 14 13 12 12 12 12 12 11 10 10 10 10 9 8 8 8 9 9 9 9 8 7 7 8 9 9 8 8 8 6 7 12 13 12 11 9 8 9 10 12 13 14 15 15 15 15 15
8 8 8 7 6 6 6 8 9 10 7 6 9 9 8 7 6 7 7 9 11 13 13 12 13 14 12 11 10 11 10 10 11 10 9 11 13 14 14 14 13 13 13 13 13 12 12 11 10 10 8 8 7 7 7 8 10 10 9 8 8 10 10 9 9 9 9 8 8 11 14 14 13 11 10 10 10 12 13 14 15 16 16 16 16
9 8 7 7 7 6 6 7 7 8 6 6 10 10 8 8 8 9 11 12 13 13 11 10 11 12 12 12 11 10 10 10 10 10 10 11 12 13 12 12 12 11 12 13 14 14 14 13 12 11 10 10 9 7 7 8 9 11 10 11 11 12 11 10 9 9 9 10 11 11 14 15 15 14 13 12 12 13 14 15 16 17 17 16 17
8 8 7 8 8 8 7 7 7 6 6 7 9 10 9 9 9 11 12 13 12 11 10 9 10 11 11 12 11 8 8 9 10 11 11 11 11 11 10 10 10 9 9 10 12 14 14 14 14 13 12 13 13 11 9 9 10 10 11 13 15 14 12 10 10 11 11 11 13 13 15 16 17 16 15 14 13 14 15 16 17 18 18 17 17
7 8 7 7 8 8 8 8 7 7 7 8 8 8 8 8 9 9 9 10 10 10 10 9 9 10 11 12 11 9 8 8 9 10 10 10 9 9 9 9 8 7 7 7 9 12 13 13 13 13 13 14 16 15 13 13 12 12 13 14 16 17 14 11 11 11 12 12 13 14 15 17 17 17 17 16 15 15 16 16 17 18 18 18 18
8 8 7 6 7 9 9 8 8 7 7 8 9 8 8 8 8 8 8 8 9 9 10 10 9 10 11 11 11 11 10 9 8 8 9 9 8 8 9 8 7 7 7 7 8 8 9 11 12 11 12 13 15 17 17 17 17 17 17 16 16 17 15 13 12 12 13 14 14 15 16 17 17 18 19 18 17 17 17 17 18 18 19 19 19
9 8 7 6 6 7 8 8 8 8 8 8 8 9 8 7 7 7 7 7 7 9 11 9 8 8 8 9 9 9 10 9 8 7 7 8 8 8 8 8 8 8 8 8 8 8 9 10 10 10 10 9 11 12 14 16 17 18 19 20 19 18 17 15 14 13 14 15 16 16 18 18 18 19 20 20 20 19 18 18 18 19 19 20 20
11 9 8 8 7 7 8 7 7 8 9 9 8 8 7 8 8 8 8 8 8 10 11 8 6 6 5 5 4 5 6 6 6 6 6 7 9 9 9 8 8 9 9 9 9 10 11 11 12 12 12 11 10 9 9 8 8 9 12 14 17 20 20 19 18 16 16 16 17 18 19 19 19 20 21 22 22 21 20 19 19 20 20 21 21
13 11 10 9 8 8 8 7 7 8 8 8 7 8 8 8 9 9 10 10 10 9 9 8 6 6 6 5 4 3 3 3 3 2 3 4 6 7 8 7 6 7 8 9 9 10 11 12 13 14 14 14 13 11 9 8 6 6 5 6 8 13 18 20 19 19 19 19 20 20 20 20 20 20 22 23 24 23 22 21 21 21 21 21 22
14 13 12 10 9 8 9 9 9 10 11 9 9 9 9 9 9 9 9 9 8 6 8 8 7 7 7 5 4 3 1 1 2 1 2 3 4 4 5 5 5 6 7 8 9 9 10 11 12 13 14 15 15 14 13 12 11 10 8 7 7 8 11 13 13 15 16 18 21 22 22 22 22 22 23 24 24 24 24 23 23 22 22 22 22
14 14 14 12 10 9 11 12 11 11 12 11 10 10 9 9 9 9 8 7 6 4 6 7 6 6 5 5 4 3 1 1 1 2 3 3 3 3 3 4 6 7 7 7 8 8 10 11 11 11 12 14 15 16 16 15 15 14 13 13 12 12 12 11 11 11 12 13 15 18 21 22 23 24 24 25 25 26 25 25 25 24 24 23 23
15 15 14 13 11 12 13 13 12 11 11 11 11 10 10 10 10 10 9 8 6 4 5 6 6 5 5 4 3 2 1 2 2 3 4 5 5 4 4 5 6 7 7 8 8 9 10 11 11 11 11 12 13 15 15 16 16 17 17 17 17 16 16 16 15 15 15 15 14 14 16 18 21 23 24 25 26 27 27 26 26 26 26 26 25
16 15 15 14 13 13 12 12 12 11 10 11 12 11 11 11 10 10 8 8 7 6 6 5 5 5 5 4 2 1 2 3 4 4 4 7 7 6 7 7 6 7 8 9 8 9 10 11 12 12 13 13 14 14 14 15 15 17 18 19 20 20 20 20 20 19 19 19 19 17 16 16 19 21 23 24 26 28 28 28 28 28 28 27 27
17 16 17 16 14 13 12 11 12 11 10 12 11 9 10 10 9 9 8 7 7 7 6 5 5 4 4 4 3 3 4 5 5 4 3 6 8 8 8 8 8 9 10 11 10 9 9 11 12 13 13 14 15 15 14 14 15 17 19 20 21 21 22 23 23 24 23 23 23 22 20 17 17 20 22 23 24 26 27 28 29 29 29 29 29
18 18 18 17 16 14 12 12 12 12 12 13 12 10 10 10 9 9 8 8 7 6 6 5 4 3 2 1 1 2 4 6 7 6 3 3 5 6 8 9 10 10 11 12 12 11 11 11 12 12 13 13 14 15 14 14 13 13 15 18 21 23 23 23 25 26 27 27 26 25 24 22 19 20 21 23 25 25 26 27 28 29 30 30 30
21 20 19 18 16 14 14 13 13 12 13 14 13 11 10 9 8 9 9 9 7 5 5 4 3 1 0 1 2 2 3 5 6 6 5 4 4 4 6 7 9 11 12 12 12 11 11 12 12 13 13 13 14 14 13 11 8 7 7 9 15 19 21 21 23 25 27 29 28 27 27 26 25 23 21 23 25 27 27 27 27 28 30 31 31
22 21 19 19 17 15 15 15 14 13 13 13 13 13 11 9 8 8 9 8 7 5 4 3 2 2 1 2 2 3 3 4 4 5 6 5 5 5 6 6 7 9 11 13 13 13 12 11 12 13 14 14 14 14 13 11 9 6 3 3 5 7 10 12 16 20 22 23 25 26 27 28 29 28 26 25 25 27 28 28 29 29 29 30 31
22 21 20 19 18 17 16 15 15 14 13 13 13 13 11 9 9 9 8 7 7 6 4 3 2 1 2 2 2 3 3 3 4 5 5 5 5 5 6 7 7 8 9 10 12 13 13 12 11 12 12 13 13 13 14 14 12 9 3 2 2 1 4 5 7 13 16 16 17 19 22 25 26 27 27 28 28 28 28 29 30 30 31 31 31
24 23 22 21 19 17 16 15 14 14 13 13 13 13 12 11 11 11 10 8 7 6 4 3 1 0 1 2 3 4 3 3 3 3 3 4 4 4 5 6 5 5 6 7 8 10 12 12 12 12 12 13 14 15 15 14 13 13 10 5 2 1 3 2 5 8 11 12 14 14 15 18 20 22 23 25 27 28 28 28 30 31 32 33 33
25 24 23 21 19 17 16 15 15 14 13 13 13 13 13 12 12 12 10 9 7 5 4 3 3 2 3 3 4 5 5 4 4 4 4 4 4 4 5 6 5 4 4 4 5 6 9 10 11 11 13 14 15 15 15 15 14 14 15 15 12 9 6 4 4 4 8 14 16 15 15 15 15 16 16 18 20 22 23 24 26 29 30 32 34
27 25 23 21 18 17 16 16 15 14 13 12 12 12 12 11 10 10 9 8 7 6 4 4 4 3 3 3 4 5 5 6 6 5 4 5 4 5 6 7 7 7 7 7 7 7 8 8 9 10 11 12 13 15 16 16 15 14 15 17 19 19 17 11 5 4 7 11 14 15 17 18 18 18 19 18 18 18 19 20 22 25 27 28 31
29 27 24 22 19 18 17 17 15 13 12 11 11 11 11 11 10 9 8 7 6 6 5 4 4 4 3 3 3 4 4 5 6 5 4 4 5 5 7 7 8 9 10 10 10 10 10 10 10 10 10 11 12 13 15 16 15 14 15 15 16 19 20 18 15 11 5 5 9 13 18 23 24 25 26 26 26 24 23 24 25 26 26 27 28
30 28 25 23 20 19 18 17 15 13 12 12 11 10 10 10 10 9 9 7 7 7 6 5 5 4 5 4 4 4 4 4 4 5 5 5 5 5 5 6 7 8 9 10 10 11 12 13 13 13 13 13 13 14 14 15 15 15 15 14 15 17 18 19 20 18 10 6 8 8 13 18 19 24 27 26 27 27 26 26 27 26 24 24 26
29 27 25 24 22 21 20 18 16 14 12 12 11 10 10 10 10 8 8 8 7 7 6 6 5 5 5 5 5 5 5 5 5 5 5 5 6 7 6 6 7 7 8 9 10 12 13 14 15 15 15 15 14 15 15 15 16 16 15 14 15 15 13 12 13 16 13 10 9 8 10 12 12 20 26 24 25 26 26 27 27 27 27 26 26
27 27 26 25 24 23 21 19 17 15 13 13 12 10 9 9 8 7 6 7 6 6 6 6 6 5 6 5 6 6 7 7 7 7 6 6 7 8 9 8 9 9 10 11 11 12 13 14 14 15 16 16 16 16 16 16 16 16 16 16 17 16 13 11 12 14 11 9 9 7 10 13 13 19 25 23 24 26 27 28 28 29 29 28 28
Wind_Direction
166 169 171 171 172 170 170 169 165 165 162 161 162 159 157 152 151 148 144 139 135 129 123 122 123 126 126 125 123 123 123 124 124 124 126 127 127 125 122 120 120 122 124 122 119 116 112 110 109 113 117 117 118 118 120 122 123 121 119 116 113 113 112 113 116 116 113 113 111 111 110 109 109 108 108 108 108 107 105 104 105 103 99 98 96
165 167 170 172 172 170 169 169 169 168 165 164 165 165 161 156 155 151 147 142 137 131 127 126 127 131 131 130 128 126 126 126 126 124 123 125 126 124 122 121 123 125 124 121 119 118 117 114 113 115 117 119 119 120 122 123 122 118 115 114 113 111 110 111 116 117 114 112 107 108 109 108 107 106 107 107 109 108 105 103 105 104 102 101 98
156 164 167 169 171 168 168 168 169 169 169 168 168 170 167 161 158 155 151 145 140 134 130 127 128 135 134 134 134 132 131 130 127 124 123 124 125 126 125 124 125 126 123 122 123 123 123 120 119 119 120 123 122 123 123 122 119 116 114 115 115 112 111 112 116 117 113 110 107 107 108 110 109 106 106 105 107 107 104 102 101 102 104 104 100
151 160 163 165 168 166 166 168 167 167 171 173 172 173 173 167 161 160 154 148 144 136 133 129 130 137 137 137 138 137 135 133 129 126 126 126 128 129 128 128 128 127 124 124 128 127 125 122 121 121 122 124 125 125 122 120 118 117 115 114 114 111 110 109 113 115 113 114 115 113 110 112 112 110 108 105 108 108 105 103 102 103 105 103 100
148 156 162 164 165 166 166 167 166 161 166 173 171 174 177 171 163 163 156 150 145 138 136 131 131 138 139 137 139 138 136 136 132 129 129 131 133 133 133 132 131 129 126 124 127 127 123 120 120 122 122 124 128 127 124 123 123 120 115 112 112 110 104 99 101 105 109 117 120 118 115 114 113 112 109 108 110 109 108 107 106 108 106 100 101
144 153 161 161 163 165 165 164 163 157 160 168 166 171 178 174 166 163 156 151 147 140 139 134 132 137 140 137 138 137 136 138 136 135 134 136 137 137 138 135 134 132 128 122 125 127 122 120 121 122 123 127 130 129 128 129 126 121 116 114 114 109 103 96 92 93 96 107 116 117 117 116 115 114 112 112 112 111 110 109 110 111 108 102 102
141 150 158 157 156 156 159 158 156 152 156 165 162 168 175 174 168 163 156 151 150 143 141 137 132 136 141 138 137 138 139 140 139 138 138 140 139 139 137 134 136 133 128 124 124 127 124 124 125 124 126 130 132 131 132 131 126 124 120 120 116 110 109 101 89 87 85 89 104 112 116 117 117 116 116 115 115 114 113 112 113 114 111 106 104
137 149 159 155 151 147 148 147 148 147 147 156 157 166 171 171 167 162 156 153 153 146 143 140 134 135 141 141 139 141 143 144 143 140 141 143 142 142 138 137 137 133 131 127 124 125 127 130 129 126 129 132 133 134 134 131 128 128 125 125 123 116 119 116 91 82 80 83 99 110 117 121 120 119 120 120 119 118 117 116 116 117 114 110 110
136 148 159 159 156 151 148 141 141 142 144 146 143 154 165 167 167 162 159 156 156 149 144 141 138 138 143 146 144 146 147 148 148 143 144 144 147 148 142 140 138 136 136 131 127 128 131 134 133 128 131 134 134 136 135 135 133 131 131 130 131 127 127 131 113 93 86 92 105 114 121 127 125 122 122 122 122 122 121 120 119 120 119 116 115
138 145 156 161 160 159 155 146 145 146 147 144 138 145 157 160 164 167 163 158 156 150 146 143 142 142 145 151 151 151 152 152 152 149 147 147 150 149 142 141 141 140 138 136 133 132 134 136 136 131 133 138 136 137 138 140 139 138 140 140 142 141 138 139 132 123 141 137 124 122 123 127 125 123 125 126 126 126 125 123 123 123 122 119 118
141 143 150 158 161 165 159 151 150 149 146 140 138 143 154 159 154 161 163 157 154 147 143 144 144 145 146 151 155 155 157 157 158 157 153 151 150 146 142 143 144 143 140 140 139 136 137 137 137 134 137 142 139 140 141 144 144 146 152 156 155 148 146 134 120 157 189 197 164 139 131 129 129 130 132 133 131 129 127 127 127 126 124 124 123
144 146 149 157 163 166 158 152 152 153 148 138 140 145 151 153 148 155 162 150 146 144 140 143 146 146 147 150 155 159 161 161 163 162 158 156 151 148 147 150 149 145 144 143 141 141 142 141 140 139 141 142 143 144 145 148 149 154 157 163 163 154 149 107 89 169 184 193 178 151 141 138 138 137 137 136 134 132 132 133 132 130 129 129 128
147 151 153 155 157 159 157 157 157 160 152 144 149 148 146 147 148 156 165 162 152 158 147 146 152 149 153 156 159 164 164 163 166 165 161 159 152 151 155 156 151 146 146 145 144 144 146 144 138 137 139 143 148 151 152 153 156 162 161 165 162 149 123 85 98 155 165 176 174 155 146 146 143 139 139 139 138 137 137 138 136 136 134 133 132
150 152 151 151 154 159 159 158 157 155 149 148 152 148 143 144 147 153 163 169 163 168 163 157 163 159 163 165 164 168 169 166 167 166 162 158 152 155 157 150 146 147 148 149 150 150 147 141 135 134 137 144 150 156 159 159 163 167 166 166 151 128 95 76 114 159 159 166 168 157 148 147 146 142 143 144 144 144 143 142 141 141 139 137 137
148 150 149 152 159 161 157 155 153 148 144 146 147 145 143 143 147 151 159 168 162 164 176 173 174 172 174 175 170 171 173 170 169 168 160 155 154 157 153 145 144 149 152 153 156 156 149 143 138 136 138 145 149 154 159 163 169 170 169 161 135 110 82 72 120 164 169 172 168 158 150 149 152 150 149 149 148 148 149 147 145 145 144 144 145
146 150 149 150 156 156 152 153 151 145 146 148 148 146 146 147 149 152 158 167 163 163 181 184 183 182 182 182 176 173 176 175 172 167 160 156 156 157 151 147 148 150 153 154 156 155 151 150 145 138 140 146 149 151 154 164 170 169 168 157 130 102 78 75 120 167 179 180 173 164 160 156 160 160 158 158 154 153 155 152 151 151 149 152 153
148 150 147 145 152 150 146 150 152 148 151 153 153 151 149 150 150 153 159 167 167 166 180 186 185 186 188 189 180 178 180 179 174 167 163 159 157 159 154 154 160 158 156 156 155 154 155 157 150 141 144 147 149 147 145 158 167 167 166 157 137 109 89 86 107 161 180 185 182 176 172 165 166 171 169 167 163 163 164 158 157 157 156 158 154
146 151 146 143 149 148 146 149 152 151 154 153 152 153 150 150 151 154 159 167 169 168 179 183 183 185 191 193 185 183 184 183 179 172 166 163 162 165 163 166 174 167 163 165 160 159 161 161 157 151 148 148 151 148 139 149 163 168 167 161 147 131 109 101 100 136 181 192 193 186 182 172 172 178 176 173 169 169 170 164 161 161 165 164 156
135 145 147 147 149 149 150 150 151 151 152 151 148 149 148 147 149 152 156 163 167 168 178 181 182 183 188 190 186 186 186 187 184 178 171 166 167 170 171 174 182 177 172 174 167 164 167 169 166 160 155 156 156 158 147 145 163 172 170 165 161 156 129 108 96 83 180 200 203 196 189 179 176 183 181 177 171 169 170 167 166 166 168 167 162
117 129 140 147 149 152 152 147 147 146 148 150 146 143 143 143 143 146 150 155 160 164 173 176 179 179 184 184 183 189 190 191 188 183 178 174 174 177 179 180 188 191 182 179 174 170 172 179 178 171 168 164 159 167 163 148 162 178 177 173 174 172 148 100 75 40 88 194 202 203 195 184 180 188 187 183 175 172 173 171 172 172 172 172 170
107 116 124 132 140 146 146 142 142 142 146 147 143 138 138 139 138 142 145 148 150 158 167 169 173 176 183 184 183 190 192 195 192 186 186 187 187 185 186 186 193 203 200 189 181 183 183 188 189 183 182 179 167 164 170 163 162 178 185 185 186 182 170 109 57 13 20 183 198 204 197 190 195 199 195 192 184 180 178 176 178 179 179 178 178
106 113 118 123 131 139 140 141 142 142 144 142 139 135 136 137 136 142 143 142 145 154 162 165 172 178 186 189 189 191 192 196 195 189 192 197 199 199 198 193 196 206 217 211 193 200 202 198 196 192 196 200 196 176 175 175 168 178 188 195 195 188 192 147 40 358 344 192 200 206 197 194 209 211 203 198 193 186 182 182 184 185 186 183 183
103 110 118 119 123 136 140 141 142 142 141 139 138 136 135 133 134 142 139 136 144 153 158 165 175 182 193 195 191 193 191 195 199 199 197 196 197 197 197 196 198 205 214 222 219 220 221 214 208 205 209 212 213 209 204 194 181 180 189 199 201 197 215 251 346 353 345 205 203 207 201 200 215 218 212 206 201 193 186 188 189 189 188 185 186
109 115 126 125 123 136 142 143 142 143 143 142 142 142 142 134 134 140 133 133 142 152 160 173 186 188 197 200 195 195 194 197 204 206 201 199 202 197 189 191 197 206 212 219 226 227 227 227 222 220 221 222 223 226 229 223 209 195 191 200 205 211 232 263 281 327 346 214 206 212 209 208 220 227 226 216 210 202 192 192 193 193 192 190 191
119 127 132 131 130 138 150 153 149 147 147 151 152 153 156 148 148 152 143 141 143 159 177 184 194 196 199 202 200 199 199 203 207 210 209 208 210 204 195 193 196 207 212 218 226 231 236 238 236 234 234 236 237 238 239 240 233 217 202 202 212 223 242 263 269 269 302 233 215 223 220 215 226 237 237 227 219 212 201 198 195 196 197 195 195
126 130 129 130 131 143 160 162 158 157 154 160 161 159 163 163 166 167 159 153 152 176 195 193 197 200 200 202 200 201 205 209 210 214 220 220 216 211 204 199 200 208 213 221 228 236 244 245 243 241 243 246 247 246 245 245 240 228 218 213 220 230 244 260 265 258 266 258 230 233 231 224 232 242 243 237 228 221 211 204 201 200 202 200 199
125 119 122 126 125 143 166 171 171 170 164 170 169 162 168 173 177 175 161 156 165 188 201 197 197 202 202 201 200 204 209 212 210 212 223 225 219 213 208 205 206 209 214 224 232 237 245 248 247 246 245 247 248 247 243 239 235 233 234 233 236 242 246 253 257 252 256 265 246 238 237 233 236 244 248 245 237 230 221 213 209 205 204 205 204
114 105 116 127 129 141 167 184 187 185 181 185 186 180 181 185 188 190 179 175 186 198 203 199 198 203 204 202 203 204 207 210 205 201 210 214 211 210 212 214 215 217 219 227 236 239 242 246 251 255 253 245 245 247 240 232 226 230 242 248 252 255 255 252 248 245 250 262 258 243 240 240 243 246 250 250 244 236 228 222 218 213 208 207 208
109 106 115 129 139 143 161 184 190 193 195 196 199 199 197 195 190 187 184 185 193 199 204 203 201 202 202 203 206 207 207 206 197 189 191 198 203 208 215 220 222 227 229 234 244 246 243 243 246 253 256 252 250 249 242 234 226 230 244 255 259 261 261 255 244 241 247 258 262 254 246 245 246 247 249 251 248 241 234 228 225 224 219 212 211
112 113 116 131 145 146 154 165 168 173 177 183 188 189 189 188 183 179 180 182 190 197 202 205 205 205 204 199 200 202 199 195 190 183 179 185 198 207 214 219 226 237 241 243 249 250 247 245 245 248 252 255 256 253 249 248 247 249 254 260 262 261 259 254 246 244 250 257 260 258 252 248 247 246 248 251 250 245 239 234 230 229 228 222 216
126 121 118 130 138 146 153 152 150 150 158 171 173 170 175 181 186 188 187 182 184 193 199 203 205 204 202 196 191 189 186 183 179 172 169 175 185 193 199 204 214 232 243 240 239 245 247 247 248 251 256 258 259 259 258 258 260 262 263 264 263 259 252 246 244 244 248 253 253 253 250 247 247 247 248 250 251 248 243 239 235 233 231 229 225
138 129 126 125 123 143 158 155 154 152 154 162 164 161 160 167 182 194 198 191 184 181 178 184 188 188 189 190 188 184 184 183 176 170 170 176 180 183 189 190 197 219 234 232 227 232 237 241 247 255 261 262 263 263 263 263 263 265 266 265 263 259 250 241 240 241 241 244 246 248 245 244 246 248 249 249 249 248 246 242 240 237 234 233 232
145 140 138 132 122 137 148 154 163 168 169 167 162 159 156 160 171 183 192 196 192 177 165 160 164 169 171 178 182 179 180 183 187 192 186 188 194 195 199 196 194 208 224 232 232 232 235 238 241 249 256 256 260 263 262 261 262 267 268 266 262 257 251 242 241 242 241 244 247 246 242 245 248 248 248 248 248 247 247 246 243 241 238 236 235
148 150 147 137 132 136 134 141 154 162 170 173 169 162 163 167 172 176 177 176 172 168 164 159 158 157 148 147 155 155 164 171 181 197 194 195 205 210 221 220 208 211 217 223 226 228 234 237 237 242 247 245 247 251 251 250 256 267 271 270 265 258 255 251 248 247 246 247 250 249 246 249 250 248 247 246 246 245 246 246 244 243 241 239 238
154 155 153 144 140 140 136 137 140 140 142 153 158 156 162 167 171 173 172 171 165 157 154 157 161 156 136 120 110 107 124 137 140 173 195 196 206 217 232 240 238 235 231 229 231 232 234 236 238 241 245 245 248 252 254 256 258 262 275 284 276 264 260 258 254 252 252 249 248 249 250 252 254 250 247 245 245 245 245 246 245 244 243 241 241
160 160 158 154 149 143 143 142 139 139 134 138 144 146 154 159 164 168 170 173 170 155 143 144 148 141 129 128 128 109 88 114 126 204 232 201 203 217 232 244 250 250 247 246 247 250 250 246 244 245 249 250 252 254 257 262 265 266 269 269 267 263 259 258 256 253 254 251 248 250 251 255 257 254 250 248 247 248 247 247 246 245 243 243 242
162 165 163 159 153 145 149 149 143 141 139 141 142 138 140 143 149 151 153 156 153 142 137 144 154 146 137 146 155 157 247 272 217 245 259 250 243 245 258 261 259 257 257 258 259 262 263 260 256 257 260 260 259 259 259 262 267 269 269 266 264 263 261 261 264 262 260 255 252 253 254 256 258 257 255 253 251 251 250 249 248 248 245 244 243
162 167 168 164 154 146 150 154 151 148 145 144 139 132 131 132 133 134 135 135 130 127 134 143 155 160 162 163 170 181 259 291 271 258 261 269 273 279 286 286 277 272 270 271 273 272 271 271 268 266 268 270 269 268 267 268 271 273 272 271 270 267 265 264 264 265 268 268 263 258 256 257 258 258 258 258 256 253 251 250 249 249 248 247 246
165 169 170 166 155 149 152 159 160 157 153 144 136 132 133 134 133 130 131 133 125 126 135 139 147 161 169 170 200 261 300 318 314 298 290 288 289 293 292 290 290 288 285 282 279 276 274 275 275 273 271 272 273 273 274 274 275 278 276 274 274 273 270 267 265 264 264 268 270 268 260 256 256 256 257 258 258 257 255 253 250 249 249 249 249
167 170 172 168 163 162 166 169 170 171 167 156 148 144 142 141 139 130 124 124 116 119 127 130 142 160 166 159 172 221 257 282 296 292 300 301 302 309 307 303 300 294 289 288 288 287 283 278 279 280 277 273 272 272 274 276 278 279 280 279 276 275 274 273 273 268 263 262 264 268 268 261 254 252 253 254 256 258 258 257 256 254 252 251 250
166 171 173 171 172 176 179 174 173 180 178 170 165 162 156 149 142 135 128 124 122 127 130 125 132 148 157 155 161 202 240 263 274 263 256 288 304 311 311 311 308 300 293 292 292 291 291 288 286 288 287 283 277 274 276 278 280 282 284 285 281 276 275 275 273 270 267 262 259 262 267 267 260 254 252 252 253 254 254 256 258 258 257 255 253
166 172 174 173 176 180 183 178 175 180 180 178 175 168 167 164 155 147 142 137 133 134 133 130 134 142 213 289 284 263 255 265 277 276 270 283 308 315 311 312 307 300 295 293 291 289 290 291 289 287 288 287 283 281 281 277 273 278 288 296 291 285 280 273 269 268 267 265 262 260 261 264 264 262 259 255 253 252 252 252 254 256 258 257 256
168 174 176 174 175 178 183 183 181 181 181 184 182 175 175 177 172 163 156 149 139 133 137 148 168 187 233 296 304 279 261 260 271 286 294 302 316 322 321 321 315 309 301 291 288 289 290 293 291 286 285 283 280 280 281 274 264 267 295 296 288 299 293 278 269 268 268 268 266 262 259 260 263 264 264 261 259 255 253 253 253 253 254 255 256
170 175 177 175 175 176 179 182 185 185 183 184 184 183 180 174 168 161 158 152 140 140 148 159 177 210 259 288 312 308 295 289 286 285 292 300 309 320 324 321 320 322 316 304 295 290 289 294 297 292 287 280 277 279 282 277 266 255 253 256 235 286 286 286 292 284 277 273 270 267 263 262 262 262 261 261 261 260 258 257 256 257 257 256 256
171 175 177 177 176 177 181 184 186 186 184 182 182 182 175 165 158 153 150 148 146 151 154 147 143 70 353 332 331 336 334 334 339 327 313 307 304 320 331 327 318 314 319 320 312 303 299 302 304 300 292 283 276 278 281 281 273 258 246 245 264 252 245 305 332 299 283 279 277 274 270 268 267 265 262 260 260 261 262 261 260 260 260 260 259
173 176 178 179 178 180 185 187 187 183 178 176 174 175 171 166 161 156 153 150 142 130 119 102 82 76 53 19 2 2 358 356 1 5 8 359 336 326 333 339 340 338 340 339 335 330 324 323 325 319 310 299 285 274 274 280 281 271 259 252 252 255 261 313 338 298 292 289 281 277 276 275 276 275 268 262 258 258 260 262 263 263 262 263 262
172 175 177 178 179 182 184 185 183 177 174 172 170 171 168 165 160 154 149 142 128 110 105 93 72 73 69 32 13 12 4 0 3 5 13 9 356 335 328 331 335 342 347 345 347 348 344 342 344 343 338 330 311 287 278 281 278 274 273 266 263 264 267 274 274 272 295 288 276 275 277 276 278 279 276 271 266 262 262 263 267 268 266 264 263
168 171 174 176 178 180 180 179 175 173 173 169 169 171 167 162 157 148 135 126 118 105 99 90 76 70 70 56 30 20 9 7 11 11 15 13 360 339 331 332 331 334 338 339 340 338 338 337 336 338 340 346 341 319 303 297 285 275 276 277 278 278 273 267 261 259 269 283 278 278 278 279 280 279 278 277 274 272 271 270 272 275 273 267 264
168 171 173 174 176 177 175 173 169 170 170 166 166 168 165 159 152 143 129 118 110 101 92 83 74 63 63 59 36 21 2 357 359 3 9 11 6 352 349 353 349 350 349 345 342 336 335 336 334 336 334 335 338 336 330 323 311 298 289 283 280 278 274 270 262 256 250 261 280 283 283 286 285 281 278 277 276 276 275 274 275 277 274 269 265
170 171 172 172 173 174 173 170 168 170 172 169 163 158 159 155 144 136 124 117 109 98 87 78 71 58 51 43 28 16 355 339 329 334 350 358 2 359 0 6 3 3 358 351 346 340 338 337 335 336 336 334 331 332 334 331 326 322 318 311 295 282 275 272 264 257 250 247 260 272 280 284 284 281 279 277 278 279 278 277 277 275 272 269 267
169 170 170 171 171 173 174 171 171 175 178 176 166 157 158 155 146 134 120 113 103 86 76 69 59 43 36 29 20 6 352 342 327 316 319 330 343 345 345 346 345 346 346 345 344 341 340 337 335 334 334 335 334 333 333 331 330 328 328 328 318 310 308 303 292 282 271 258 260 266 272 273 271 275 280 282 282 282 282 280 278 275 273 271 269
Height
781 781 782 783 785 785 786 787 788 789 791 793 794 795 795 796 797 797 798 799 799 800 800 801 802 802 803 804 805 807 808 809 809 809 810 810 811 811 811 811 812 812 812 812 814 814 815 815 816 817 817 818 818 818 819 819 819 819 819 820 820 821 821 821 822 822 823 823 824 824 824 825 825 826 826 827 827 827 827 827 827 828 828 828 828
779 781 782 784 785 786 787 788 790 790 792 794 795 796 797 797 798 799 799 800 801 801 802 803 803 804 804 805 806 807 809 810 811 811 811 812 812 812 812 813 813 813 813 813 814 815 816 816 817 817 818 819 819 820 820 821 820 820 820 821 821 821 822 822 823 823 824 824 825 825 825 825 826 826 827 827 827 828 828 828 828 829 829 829 829
779 782 782 784 786 787 788 789 790 791 793 794 796 797 798 799 799 800 800 801 802 803 804 804 805 805 805 806 807 808 809 811 812 812 812 813 813 814 813 814 814 814 814 814 814 815 816 816 817 818 819 819 820 821 821 822 822 822 821 822 822 822 823 823 824 824 824 825 825 825 826 826 827 827 828 828 828 828 829 829 830 830 830 831 831
778 781 781 783 785 787 788 790 791 793 794 795 797 798 799 800 800 801 801 802 803 804 805 805 806 806 807 807 808 809 810 811 812 813 814 814 815 815 815 814 815 815 815 814 814 815 816 817 817 818 819 819 820 821 822 823 823 823 823 823 823 823 823 824 824 824 825 825 825 826 826 827 827 828 828 829 829 829 830 831 831 832 832 832 832
778 780 781 782 783 785 787 789 792 793 796 797 799 800 801 801 802 802 803 803 804 805 806 807 807 808 809 809 810 810 811 812 813 814 814 815 816 816 815 815 816 816 816 815 815 815 816 817 817 818 819 820 821 822 823 823 824 824 824 824 824 824 824 824 825 825 825 825 826 826 826 827 828 828 829 830 830 831 831 832 832 833 833 833 833
779 780 781 783 784 785 786 788 791 793 796 798 800 801 802 803 803 804 804 805 805 806 807 808 808 809 809 810 811 811 812 813 813 814 815 816 816 816 816 816 817 817 817 816 816 816 816 817 817 818 820 820 821 822 823 824 825 825 825 825 825 825 825 825 826 826 826 826 826 826 827 827 828 829 830 831 831 832 832 833 833 834 835 835 835
780 781 783 784 786 787 788 789 790 792 795 797 800 801 803 803 804 805 805 806 806 807 808 809 809 810 810 811 812 812 813 813 814 815 816 817 817 817 817 817 818 818 818 817 817 816 817 817 818 819 820 820 821 822 823 824 825 826 826 826 826 826 826 826 826 827 827 827 827 827 827 828 829 830 831 831 832 833 833 834 834 835 836 836 836
780 781 782 784 786 787 789 790 790 791 794 797 800 802 804 805 805 806 806 807 807 808 809 810 810 811 812 812 812 813 813 814 815 815 816 817 817 817 817 818 818 819 819 818 818 818 818 818 818 819 820 821 821 822 823 824 826 827 827 827 827 827 827 827 827 828 828 828 828 828 828 829 830 830 831 832 833 833 834 834 835 836 837 837 838
780 780 781 782 783 785 787 789 790 791 792 795 799 804 807 808 807 807 807 808 808 809 809 810 811 812 812 813 814 814 814 815 815 816 816 816 817 817 818 818 819 819 819 819 819 819 819 819 819 819 820 821 822 822 824 825 826 828 828 828 828 828 827 828 828 829 829 829 829 829 829 829 830 831 832 832 833 834 834 835 836 837 837 838 838
779 779 780 781 782 783 783 785 788 789 790 791 794 800 807 810 810 810 810 810 809 809 810 811 811 812 813 814 814 815 815 815 816 816 816 816 817 818 818 819 819 819 819 820 820 820 820 820 820 820 821 821 822 822 823 825 827 828 828 828 828 828 828 828 829 829 830 829 830 829 829 830 830 831 832 833 834 834 835 835 836 837 837 838 839
779 780 781 781 782 782 782 783 785 787 789 789 789 793 800 805 810 813 813 812 812 811 811 812 812 813 814 814 815 816 816 816 816 816 816 817 817 818 818 819 820 820 820 821 820 820 821 821 821 821 821 821 822 822 823 825 827 828 829 829 829 829 828 829 829 829 830 829 830 830 830 830 831 832 833 834 834 834 835 836 837 837 838 839 839
780 780 780 782 782 783 783 784 784 785 787 788 788 789 794 798 804 810 814 815 814 814 813 813 814 814 815 815 816 816 817 817 817 817 817 817 817 818 818 819 820 821 821 821 821 821 821 821 821 822 822 822 822 823 823 824 826 828 828 829 829 829 829 829 828 828 829 829 830 831 831 831 831 832 833 834 834 835 836 836 837 837 838 839 839
779 779 780 781 782 785 785 785 784 783 784 785 787 788 790 794 798 803 809 813 815 815 814 815 815 815 816 816 817 817 818 818 818 818 818 818 818 818 818 819 820 821 822 822 823 822 822 822 822 822 823 823 823 823 824 824 826 828 828 829 829 829 829 829 828 827 828 829 831 831 831 832 832 833 833 834 835 836 836 837 837 837 838 839 839
778 779 780 781 782 784 784 784 784 784 784 784 785 787 788 791 795 800 805 808 811 813 814 815 816 816 817 817 818 818 818 819 819 818 819 818 818 819 819 819 820 821 822 823 823 823 823 823 823 823 823 824 824 824 824 824 825 827 828 829 830 830 830 829 828 828 829 830 831 832 832 832 833 833 834 834 835 836 836 837 837 838 838 839 840
778 779 781 782 783 785 784 783 783 784 785 785 786 786 785 787 792 798 802 805 807 811 813 815 816 817 817 818 819 819 819 819 819 819 819 819 819 819 819 820 820 822 822 823 824 824 824 824 824 824 824 824 824 824 824 824 824 826 827 828 829 829 830 829 828 828 829 830 831 832 832 833 833 833 834 834 835 836 837 837 838 838 838 839 839
779 780 781 783 784 785 786 785 784 784 785 786 787 786 785 786 789 794 799 803 806 809 812 814 815 817 817 818 819 819 820 820 820 820 820 820 820 820 820 821 821 822 823 823 824 824 825 825 825 825 825 825 825 825 824 824 824 825 827 828 829 829 830 829 829 829 830 831 832 832 832 833 833 834 834 834 835 836 837 837 838 838 839 839 839
780 782 783 783 785 786 787 788 788 787 786 787 786 786 786 786 788 792 796 801 804 807 810 813 815 816 817 818 819 820 820 820 820 820 821 821 821 821 821 822 822 822 823 824 824 825 825 825 825 826 826 826 826 825 825 825 825 825 826 827 828 829 830 830 830 830 830 831 832 833 833 833 833 834 834 835 835 836 837 837 838 838 839 839 839
782 784 784 785 786 786 787 788 789 790 790 789 789 787 786 786 787 790 795 800 804 806 809 812 813 815 816 817 819 820 820 820 820 820 821 821 821 821 822 822 822 823 823 824 825 825 826 826 826 826 826 827 826 826 826 825 825 825 826 827 828 829 830 831 831 831 831 832 832 833 833 833 833 834 834 835 836 836 837 838 838 839 839 839 840
784 785 786 787 787 788 788 789 790 791 792 792 792 790 788 788 788 790 793 798 802 805 808 810 812 814 815 817 818 819 820 820 820 820 820 821 821 821 822 822 823 823 824 825 825 826 826 826 826 827 827 828 827 827 826 826 826 826 827 827 828 829 830 831 831 831 831 831 832 833 833 833 833 834 834 835 836 836 837 838 838 839 839 839 840
786 787 788 789 789 790 790 791 792 792 794 794 794 793 791 790 790 791 793 797 801 804 807 809 811 813 814 816 817 819 820 820 820 820 821 821 821 822 822 822 823 823 824 825 826 826 826 827 827 827 828 828 828 828 827 827 826 827 827 827 828 829 830 831 830 830 830 831 832 833 833 833 833 834 834 835 835 837 837 838 839 839 839 839 840
788 789 789 789 789 790 791 792 792 794 795 795 796 795 794 793 793 793 794 797 799 803 806 808 811 812 814 815 817 818 819 820 820 821 821 821 822 822 822 822 823 823 824 825 826 827 827 827 827 828 828 828 828 828 828 828 827 827 827 828 828 829 830 830 830 830 830 830 831 832 833 833 833 833 834 834 835 836 837 838 839 839 839 840 840
789 790 790 790 790 791 791 792 792 794 795 795 796 796 796 796 795 795 795 797 799 802 805 807 809 811 813 814 816 817 818 819 819 820 820 821 821 821 822 822 823 823 824 825 826 827 827 827 827 827 828 828 828 829 829 828 828 827 827 828 828 829 830 830 830 830 830 830 831 832 832 832 833 833 833 834 834 835 837 838 839 839 839 840 840
789 790 790 791 791 791 792 792 792 793 794 795 796 796 797 797 797 798 796 796 799 802 804 806 808 810 811 813 815 816 817 818 819 819 820 820 820 821 821 821 822 823 824 825 826 827 827 827 827 827 827 828 828 828 829 828 828 827 827 827 828 829 829 830 830 830 830 830 831 832 832 833 833 833 833 833 834 835 836 837 838 839 839 840 840
790 790 791 792 792 792 793 793 793 794 794 795 796 797 797 798 799 800 799 797 799 802 804 806 808 809 810 812 814 815 817 817 818 819 819 820 820 820 821 821 822 823 823 824 825 826 827 827 827 827 827 827 828 828 828 828 828 828 827 827 828 829 829 830 830 830 830 830 831 832 832 833 832 832 833 833 833 834 835 836 837 838 839 840 840
790 791 792 792 793 793 793 794 794 795 795 795 796 797 797 798 799 800 800 799 799 802 805 806 808 809 810 812 813 815 816 816 817 818 819 820 820 821 821 821 822 822 823 824 824 825 826 826 826 826 826 827 827 827 828 828 828 828 827 827 827 828 828 829 829 830 830 830 831 832 832 832 832 832 833 833 833 833 834 835 836 837 838 839 839
791 792 793 793 793 794 794 794 795 795 796 796 796 797 797 798 799 800 800 799 799 803 806 807 808 809 810 811 813 814 815 815 816 817 818 819 819 820 820 821 821 822 823 823 824 824 825 825 826 826 826 826 826 826 827 827 827 827 827 827 827 827 828 828 828 829 829 830 830 831 832 832 832 832 832 833 833 833 833 834 835 836 837 838 839
792 793 793 794 794 794 794 795 796 796 797 797 797 798 798 799 800 800 800 800 801 805 808 808 809 810 810 811 812 813 814 815 815 816 817 818 819 819 820 820 820 821 822 823 823 823 824 825 825 825 825 825 825 825 826 826 826 827 827 826 827 827 827 827 828 828 828 829 830 830 831 831 832 832 832 832 832 832 833 833 834 835 836 837 837
793 793 794 794 794 795 795 796 796 797 797 798 799 799 800 800 800 800 801 802 804 808 809 809 810 810 810 811 812 813 814 814 814 815 816 816 818 818 819 819 819 820 820 821 822 823 823 824 824 825 825 825 824 824 824 825 825 826 826 826 826 826 826 827 827 827 827 828 829 829 830 831 831 831 831 831 832 832 832 832 832 833 834 835 836
793 794 794 794 795 795 796 796 797 798 798 799 800 800 801 801 800 801 802 804 806 808 809 810 810 810 811 811 811 812 812 813 814 814 815 815 817 817 818 819 819 820 820 821 821 822 822 822 823 824 824 824 824 824 823 824 824 825 824 824 825 825 825 826 826 826 826 827 827 828 829 830 830 830 831 831 831 831 831 831 831 832 833 833 834
794 794 795 795 795 796 796 797 798 799 800 800 800 801 801 802 802 803 804 805 806 808 809 810 810 810 811 811 811 811 812 812 813 813 813 814 816 817 818 818 818 819 819 820 821 821 822 822 823 823 823 823 823 823 823 823 823 824 824 824 824 824 824 825 825 825 825 826 826 827 828 828 829 829 830 830 830 830 830 831 831 831 831 832 833
794 794 795 795 795 796 797 798 799 799 800 800 801 801 802 803 804 805 806 806 807 807 808 809 810 810 811 811 811 811 812 812 813 813 813 814 815 816 817 817 817 818 818 819 820 821 821 822 822 822 822 822 822 822 822 822 822 822 822 822 823 823 823 824 824 824 824 824 825 825 826 827 828 828 828 829 829 829 829 829 830 830 830 830 831
794 794 795 795 796 797 797 798 799 799 800 801 801 802 802 803 804 805 806 807 808 809 809 809 810 811 811 811 811 811 812 812 813 813 813 814 815 816 817 816 816 817 818 818 819 820 820 821 821 821 821 821 821 821 821 821 821 821 821 821 822 822 822 822 823 823 823 823 823 823 824 825 826 826 827 827 827 828 828 828 828 829 829 829 829
794 795 795 795 796 797 797 798 799 800 800 800 801 802 803 803 804 805 806 807 810 811 809 810 810 811 811 811 811 811 812 812 813 814 814 814 815 816 816 816 816 816 817 818 818 819 819 819 820 820 820 820 820 820 820 820 820 820 820 820 820 821 821 821 821 821 821 821 821 821 822 823 824 824 825 825 826 826 826 826 827 827 827 828 828
795 796 796 796 797 797 798 798 799 799 800 801 801 802 803 803 804 805 806 807 810 811 810 810 811 812 812 812 812 812 813 813 814 814 814 814 815 815 816 816 816 816 817 817 818 818 818 818 818 819 819 819 819 819 819 818 818 819 818 818 818 819 819 820 820 820 820 819 819 820 820 821 822 822 823 823 824 824 824 824 825 825 826 826 826
796 797 797 797 797 798 799 799 799 800 800 801 801 801 802 803 804 805 806 807 809 810 810 810 811 812 813 813 813 814 815 815 815 815 815 815 815 816 816 816 816 816 817 818 818 818 817 817 817 817 818 818 818 818 818 818 818 818 817 817 817 818 818 819 819 819 818 818 818 818 819 819 820 821 821 821 822 822 822 822 822 823 823 824 824
796 797 798 798 798 798 799 800 800 801 801 802 803 803 803 804 805 805 806 807 808 809 810 811 812 813 813 814 814 815 816 816 816 816 816 816 816 816 816 816 816 817 817 818 818 817 817 816 816 816 816 816 816 816 816 816 816 816 816 816 817 817 817 818 818 817 817 817 817 817 817 818 818 819 819 819 820 820 820 820 820 821 821 822 822
797 797 798 798 798 799 800 801 802 802 802 803 804 805 805 805 806 807 807 808 809 810 811 813 813 813 814 814 815 815 816 816 816 817 817 817 817 816 816 816 816 817 817 817 817 816 816 816 815 815 814 814 814 814 814 814 814 814 815 815 815 815 815 816 816 816 816 816 816 816 816 816 816 817 817 818 818 818 819 819 819 819 819 819 820
797 798 798 798 799 799 801 802 802 803 803 804 805 806 807 807 807 808 808 809 809 810 811 813 813 814 814 814 815 815 816 816 816 816 817 817 817 816 816 816 816 815 815 815 815 815 815 815 814 814 814 814 813 813 813 813 813 812 813 813 813 813 813 814 814 814 814 814 814 814 814 814 814 815 815 815 816 816 817 817 818 818 818 818 818
797 798 799 799 799 800 801 802 803 804 804 805 806 807 807 808 808 808 809 809 809 810 811 812 813 814 814 814 814 815 815 815 816 816 816 816 816 816 815 815 815 814 814 814 814 814 814 814 813 813 813 813 812 812 812 812 811 811 811 811 811 811 811 811 812 811 812 811 811 811 811 811 812 812 813 813 814 814 815 815 816 816 816 816 817
797 799 799 799 800 801 802 803 804 804 805 806 806 808 808 808 808 808 809 809 810 810 810 811 812 812 813 813 813 814 814 815 815 814 814 815 815 814 814 814 813 813 813 813 813 813 813 813 812 812 812 811 811 811 811 811 810 810 809 809 809 809 809 809 809 809 809 809 809 809 809 809 810 810 811 811 811 812 812 813 813 813 814 814 815
797 799 799 799 800 801 802 803 804 804 805 805 806 807 808 808 808 809 809 809 810 810 810 811 811 811 812 812 812 813 813 814 814 813 813 814 814 813 813 813 812 812 812 812 812 812 812 812 812 811 811 811 810 810 810 810 810 809 808 808 807 807 807 807 806 806 806 806 806 807 807 807 807 807 808 809 809 809 810 810 811 811 811 811 812
796 798 799 799 800 801 802 803 804 804 805 805 806 807 808 808 808 808 809 809 810 810 810 810 810 811 811 811 811 811 812 813 813 813 814 813 812 812 812 812 812 812 812 812 812 811 811 811 811 811 811 810 810 810 810 810 810 809 809 809 807 805 805 804 804 803 803 803 803 804 804 804 804 804 805 806 806 807 807 808 808 808 808 809 809
795 797 799 799 800 801 802 803 804 804 805 805 806 807 808 808 808 808 809 809 809 809 809 809 810 810 810 811 811 811 811 811 812 812 812 811 811 811 811 811 811 811 811 812 812 811 811 810 810 810 810 810 809 809 810 810 810 809 810 810 808 806 804 802 801 801 801 800 800 801 801 801 802 802 802 802 803 804 804 805 805 805 806 806 806
794 796 797 798 799 800 802 803 804 804 805 805 806 806 807 807 808 808 808 808 809 809 809 809 809 809 809 810 810 810 810 810 810 810 810 810 810 811 811 811 811 811 811 811 811 811 811 810 809 809 809 809 808 808 808 808 808 809 809 809 809 809 807 803 800 800 799 799 798 798 798 798 799 800 799 799 800 801 801 802 802 802 803 803 803
792 794 796 797 797 799 801 803 804 804 804 805 805 806 806 807 807 807 808 808 808 808 808 809 809 809 809 809 810 810 810 810 809 809 809 809 809 810 811 811 811 811 811 810 810 810 810 809 808 808 808 808 807 807 807 807 807 807 808 808 808 809 807 803 801 799 797 797 797 797 797 797 797 797 797 797 797 798 799 799 799 799 800 800 800
789 792 794 796 797 798 801 802 803 804 804 804 805 805 805 806 806 807 807 807 808 808 808 809 809 809 809 809 809 809 809 809 809 808 808 808 809 809 810 810 811 810 810 809 809 809 809 808 807 807 807 806 806 806 805 806 806 806 806 806 806 807 805 803 804 801 797 795 796 796 795 796 796 796 795 796 796 796 797 797 797 797 797 797 797
787 790 793 795 796 798 800 802 803 803 804 804 804 805 805 806 806 806 807 807 807 808 808 809 809 809 809 809 809 809 809 809 808 808 808 808 808 809 809 809 809 809 808 808 807 807 807 807 806 806 805 805 805 804 804 804 804 804 804 803 803 803 803 803 804 803 799 795 793 794 794 794 794 794 794 794 794 794 795 795 795 795 795 794 794
785 789 791 793 796 798 800 802 802 803 804 804 804 805 805 806 806 807 807 807 807 808 808 808 809 809 809 809 808 808 808 808 808 807 807 807 807 808 808 808 807 807 806 806 806 806 806 805 805 805 804 804 804 804 803 803 802 801 801 801 801 801 801 801 801 801 800 796 792 791 792 792 792 792 791 791 791 792 792 792 793 792 792 792 791
783 787 790 792 795 798 800 801 802 803 804 805 805 805 806 806 807 807 807 807 807 808 808 808 809 808 808 808 808 808 807 807 807 807 807 807 806 807 807 807 807 806 806 805 805 805 805 805 804 804 804 804 804 804 803 802 802 801 800 799 799 799 799 799 799 798 798 797 793 790 789 790 789 789 789 789 788 789 789 789 790 789 789 789 788
783 786 789 792 795 797 800 801 802 803 804 805 805 806 807 807 807 807 807 807 807 807 808 808 808 808 808 808 808 807 807 807 807 806 807 806 806 806 806 806 806 806 805 805 805 805 804 804 804 804 804 803 803 803 802 802 801 800 799 799 798 797 796 796 796 796 795 795 793 790 789 789 788 785 785 786 786 786 787 787 786 786 786 786 786
784 787 789 791 794 797 799 801 802 803 804 805 806 806 807 807 807 807 807 807 807 807 807 808 808 808 808 808 808 808 807 807 806 806 806 806 806 805 805 805 805 805 805 804 804 804 804 804 804 804 803 803 802 802 801 800 800 799 798 798 798 797 797 795 795 795 794 793 792 789 788 788 787 783 781 783 783 783 783 783 783 783 782 782 782